Abilene, TX

9:18 AM CDT on October 22, 2017 (GMT -0500)
Abilene Regional

Weather History for KABI - June, 2012

Change the Weather History Date:

Monday, June 11, 2012

  Actual Average Record
Temperature  
Mean Temperature 88 °F 79 °F  
Max Temperature 105 °F 90 °F 105 °F (2012)
Min Temperature 70 °F 68 °F 53 °F (1955)
Degree Days  
Heating Degree Days 0 0  
Month to date heating degree days 0 0  
Since 1 June heating degree days 0 0  
Since 1 July heating degree days 2089 2558  
Cooling Degree Days 23 14  
Month to date cooling degree days 174 142  
Year to date cooling degree days 839 539  
Since 1 June cooling degree days 174 142  
Growing Degree Days 38 (Base 50)    
Moisture  
Dew Point 64 °F    
Average Humidity 46    
Maximum Humidity 69    
Minimum Humidity 22    
Precipitation  
Precipitation 0.22 in 0.13 in 2.46 in (1945)
Month to date precipitation 1.65 1.54  
Year to date precipitation 10.51 10.48  
Sea Level Pressure  
Sea Level Pressure 29.78 in    
Wind  
Wind Speed 13 mph (South)    
Max Wind Speed 37 mph    
Max Gust Speed 52 mph    
Visibility 10 miles    
Events Rain , Thunderstorm    
T = Trace of Precipitation, MM = Missing Value Source: NWS Daily Summary

Daily Weather History Graph

Daily Weather History Graph

Search for Another Location

Airport or City:

Trip Planner

Search our weather history database for the weather conditions in past years. The results will help you decide how hot, cold, wet, or windy it might be!

Date:

Astronomy

Jun. 11, 2012 Rise Set
Actual Time 6:31 AM CDT 8:46 PM CDT
Civil Twilight 6:02 AM CDT 9:14 PM CDT
Nautical Twilight 5:28 AM CDT 9:49 PM CDT
Astronomical Twilight 4:50 AM CDT 10:26 PM CDT
Moon 1:29 AM CDT (6/11) 1:57 PM CDT (6/11)
Length of Visible Light 15h 11m
Length of Day
14h 15m
Waning Gibbous, 47% of the Moon is Illuminated
Jun 11
Waning Gibbous
Jun 19
New
Jun 26
First Quarter
Jul 3
Full
Jul 10
Last Quarter

Hourly Weather History & Observations

Time (CDT) Temp. Heat Index Dew Point Humidity Pressure Visibility Wind Dir Wind Speed Gust Speed Precip Events Conditions
12:52 AM 86.0 °F 90.1 °F 69.1 °F 57% 29.68 in 10.0 mi SSE 13.8 mph - N/A   Clear
1:52 AM 84.9 °F 87.6 °F 66.9 °F 55% 29.68 in 10.0 mi South 11.5 mph - N/A   Clear
2:52 AM 82.0 °F 84.1 °F 66.0 °F 58% 29.69 in 10.0 mi SSE 8.1 mph - N/A   Clear
3:52 AM 79.0 °F - 66.9 °F 66% 29.69 in 10.0 mi SE 6.9 mph - N/A   Clear
4:52 AM 80.1 °F 82.1 °F 66.0 °F 62% 29.70 in 10.0 mi South 8.1 mph - N/A   Clear
5:52 AM 79.0 °F - 66.0 °F 64% 29.70 in 10.0 mi South 10.4 mph - N/A   Clear
6:52 AM 80.1 °F 82.1 °F 66.0 °F 62% 29.74 in 10.0 mi South 4.6 mph - N/A   Clear
7:52 AM 82.9 °F 85.8 °F 68.0 °F 60% 29.75 in 10.0 mi SSW 12.7 mph 19.6 mph N/A   Clear
8:52 AM 84.9 °F 88.8 °F 69.1 °F 59% 29.77 in 10.0 mi South 20.7 mph 26.5 mph N/A   Clear
9:52 AM 89.1 °F 92.1 °F 66.9 °F 48% 29.79 in 10.0 mi SW 15.0 mph 21.9 mph N/A   Clear
10:52 AM 93.0 °F 95.9 °F 66.0 °F 41% 29.79 in 10.0 mi SSW 16.1 mph - N/A   Clear
11:52 AM 97.0 °F 100.4 °F 66.0 °F 36% 29.80 in 10.0 mi SSW 13.8 mph 20.7 mph N/A   Clear
12:52 PM 100.0 °F 101.8 °F 63.0 °F 29% 29.80 in 10.0 mi SW 8.1 mph 20.7 mph N/A   Clear
1:52 PM 102.0 °F 103.3 °F 61.0 °F 26% 29.78 in 10.0 mi Variable 5.8 mph - N/A   Clear
2:52 PM 104.0 °F 104.0 °F 57.9 °F 22% 29.77 in 10.0 mi SSW 5.8 mph - N/A   Clear
3:52 PM 102.0 °F 101.6 °F 57.9 °F 23% 29.76 in 10.0 mi NW 4.6 mph - N/A   Partly Cloudy
4:52 PM 100.9 °F 101.6 °F 60.1 °F 26% 29.75 in 9.0 mi Calm Calm - 0.00 in Rain , Thunderstorm Light Rain
5:36 PM 87.8 °F 88.5 °F 62.6 °F 43% 29.83 in 10.0 mi ESE 12.7 mph - 0.04 in Thunderstorm Partly Cloudy
5:52 PM 84.9 °F 85.4 °F 62.1 °F 46% 29.77 in 10.0 mi SSE 23.0 mph 28.8 mph 0.04 in Thunderstorm Clear
6:52 PM 84.9 °F 84.4 °F 59.0 °F 41% 29.80 in 10.0 mi SSE 25.3 mph 34.5 mph N/A Thunderstorm Clear
6:59 PM 82.4 °F 82.9 °F 60.8 °F 48% 29.88 in 10.0 mi SSE 24.2 mph 34.5 mph N/A   Clear
7:43 PM 77.0 °F - 62.6 °F 61% 29.98 in 10.0 mi SW 28.8 mph 51.8 mph N/A   Mostly Cloudy
7:52 PM 71.1 °F - 63.0 °F 75% 29.89 in 4.0 mi WSW 21.9 mph 36.8 mph 0.02 in   Haze
8:52 PM 75.9 °F - 64.9 °F 69% 29.81 in 9.0 mi SSE 27.6 mph 35.7 mph 0.16 in   Mostly Cloudy
9:52 PM 77.0 °F - 64.0 °F 64% 29.87 in 10.0 mi SSE 19.6 mph 26.5 mph N/A   Clear
10:52 PM 77.0 °F - 60.1 °F 56% 29.88 in 10.0 mi SSE 17.3 mph 27.6 mph N/A   Clear
11:52 PM 75.9 °F - 61.0 °F 60% 29.91 in 10.0 mi SSE 12.7 mph - N/A   Partly Cloudy